SCP
1 1 0 0 0 0 0 0 0 0 0 0 0 0 0 0 0 0 0 0 0 0 0 0 0 0 0 0 0 0 0 1 1 1 1 0 0 0 0 0 0 0 0 0
1 0 0 0 0 0 0 0 0 0 0 0 0 0 0 0 0 0 0 0 0 0 0 0 0 0 0 0 0 0 0 1 1 2 1 1 0 0 0 0 0 0 0 0
1 0 0 0 0 0 0 0 0 0 0 0 0 0 0 0 0 0 0 0 0 0 0 0 0 0 0 0 0 0 0 1 1 2 2 2 1 1 0 0 0 0 0 0
0 0 0 0 0 0 0 0 0 0 0 0 0 0 0 0 0 0 0 0 0 0 0 0 0 0 0 0 0 0 0 0 1 2 3 3 2 1 1 0 0 0 0 0
0 0 0 0 0 0 0 0 0 0 0 0 0 0 0 0 0 0 0 0 0 0 0 0 0 0 0 0 0 0 0 0 1 2 3 3 3 3 2 1 0 0 0 0
0 0 0 0 0 0 0 0 0 0 0 0 0 0 0 0 0 0 0 0 0 0 0 0 0 0 0 0 0 0 0 0 0 1 3 4 4 3 3 2 1 1 0 0
0 0 0 0 0 0 0 0 0 0 0 0 0 0 0 0 0 0 0 0 0 0 0 0 0 0 0 0 0 0 0 0 0 1 2 3 4 4 4 3 2 2 1 0
0 0 0 0 0 0 0 0 0 0 0 0 0 0 0 0 0 0 0 0 0 0 0 0 0 0 0 0 0 0 0 0 0 0 1 1 2 3 4 4 3 3 2 1
0 0 0 0 0 0 0 0 0 0 0 0 0 0 0 0 0 0 0 0 0 0 0 0 0 0 0 0 0 0 0 0 0 0 0 1 1 2 3 3 4 4 3 2
0 0 0 0 0 0 1 1 1 0 0 0 0 0 0 0 0 0 0 0 0 0 0 0 0 0 0 0 0 0 0 0 1 1 1 0 0 1 1 2 3 4 4 3
0 0 0 0 0 0 1 1 1 1 0 0 0 0 0 0 0 0 0 0 0 0 0 0 0 0 0 0 0 0 0 0 1 1 1 0 0 0 0 1 2 3 3 4
0 0 0 0 0 0 0 0 0 0 0 0 0 0 0 0 0 0 0 0 0 0 0 0 0 0 0 0 0 0 0 0 0 0 1 0 0 0 0 0 0 1 3 4
1 1 0 0 0 0 0 0 0 0 0 0 0 0 0 0 0 0 0 0 0 0 0 0 0 0 0 0 0 0 0 0 0 0 0 0 0 0 0 0 0 0 2 3
1 1 0 0 0 0 0 0 0 0 0 0 0 0 0 0 0 0 0 0 0 0 0 0 0 0 0 0 0 0 0 0 0 0 0 0 0 0 0 0 0 0 1 2
1 1 0 0 0 0 0 0 0 0 0 0 0 0 0 0 0 0 0 0 0 0 0 0 0 0 0 0 0 0 0 0 0 0 0 0 0 0 0 0 0 0 0 1
0 0 0 0 0 0 0 0 0 0 0 0 0 0 0 0 0 0 0 0 0 0 0 0 0 0 0 0 0 0 0 0 0 0 0 0 0 0 0 0 0 0 0 1
0 0 0 0 0 0 0 0 0 0 0 0 0 0 0 0 0 0 0 0 0 0 0 0 0 0 0 0 0 0 0 0 0 0 0 0 0 0 0 0 0 0 0 1
0 0 0 0 0 0 0 0 0 0 0 0 0 0 0 0 0 0 0 0 0 0 0 0 0 0 0 0 0 0 0 0 0 0 0 0 0 0 0 0 0 0 0 0
0 0 0 0 0 0 0 0 0 0 0 0 0 0 0 0 0 0 0 0 0 0 0 0 0 0 0 0 0 0 0 0 0 0 0 0 0 0 0 0 0 0 0 0
0 0 0 0 0 0 0 0 0 0 0 0 0 0 0 0 0 0 0 0 0 0 0 0 0 0 0 0 0 0 0 0 0 0 0 0 0 0 0 0 0 0 0 0
0 0 0 0 0 0 0 0 0 0 0 0 0 0 0 0 0 0 0 0 0 0 0 0 0 0 0 0 0 0 0 0 0 0 0 0 0 0 0 0 0 0 0 0
0 0 0 0 0 0 0 0 0 0 0 0 0 0 0 0 0 0 0 0 0 0 0 0 0 0 0 0 0 0 0 0 0 0 0 0 0 0 0 0 0 0 0 0
0 0 0 0 0 0 0 0 0 0 0 0 0 0 0 0 0 0 0 0 0 0 0 0 0 0 0 0 0 0 0 0 0 0 0 0 0 0 0 0 0 0 0 0
0 0 0 0 0 0 0 0 0 0 0 0 0 0 0 0 0 0 0 0 0 0 0 0 0 0 0 0 0 0 0 0 0 0 0 0 0 0 0 0 0 0 0 0
0 0 0 0 0 0 0 0 0 0 0 0 0 0 0 0 0 0 0 0 0 0 0 0 0 0 0 0 0 0 0 0 0 0 0 0 0 0 0 0 0 0 0 0
0 0 0 0 0 0 0 0 0 0 0 0 0 0 0 0 0 0 0 0 0 0 0 0 0 0 0 0 0 0 0 0 0 0 0 0 0 0 0 0 0 0 0 0
Wind_Speed
9 10 16 19 18 8 8 8 9 7 5 7 12 14 12 10 8 10 10 10 11 12 12 10 11 11 11 11 13 14 15 14 11 9 9 10 11 9 8 8 10 11 10 11
9 19 15 10 12 10 9 10 8 4 4 6 8 14 12 12 12 12 13 12 12 11 10 10 10 10 11 13 14 14 15 14 14 12 10 7 7 6 7 6 8 11 11 12
19 9 11 10 11 15 15 15 10 5 2 3 4 11 12 11 11 12 12 12 12 13 13 11 10 11 11 12 14 13 15 15 15 13 7 4 4 3 5 8 10 12 12 12
15 9 10 13 14 16 18 12 9 8 5 6 6 10 9 11 12 14 14 13 14 13 13 12 10 10 11 13 12 13 14 14 14 13 10 12 12 13 13 10 9 10 12 13
13 11 14 17 17 15 5 7 10 10 8 8 7 10 9 7 13 14 15 15 14 14 13 13 11 11 11 11 10 11 12 12 12 13 14 14 14 12 8 7 8 9 10 12
8 6 12 11 8 11 6 5 4 5 7 16 15 12 11 10 14 10 12 13 13 12 11 11 10 8 8 8 8 8 9 11 11 13 14 15 16 14 10 9 10 10 9 10
11 10 7 6 9 9 9 8 6 8 10 12 10 12 14 9 10 12 13 13 13 11 10 9 8 6 6 5 6 7 8 9 9 11 12 14 15 15 15 13 12 10 9 10
15 13 14 10 13 13 17 15 12 9 8 5 7 14 11 8 9 10 10 10 8 8 7 7 7 6 5 5 5 5 6 7 7 8 10 11 12 11 10 12 10 10 10 10
14 12 7 11 8 12 12 14 10 4 2 4 8 8 9 5 7 9 8 7 7 7 5 5 4 3 3 2 3 4 5 5 5 6 7 8 10 10 11 11 11 10 9 8
6 7 6 8 6 10 10 9 7 9 9 10 8 8 8 6 9 8 8 8 7 5 3 2 1 1 0 1 1 1 2 4 4 4 5 5 7 9 10 9 10 10 10 10
7 7 5 9 16 17 11 12 9 7 6 7 7 9 7 9 10 10 10 8 7 5 3 2 1 1 1 2 2 2 1 1 2 2 4 4 5 6 7 8 9 10 9 10
9 6 7 11 9 9 12 14 15 12 9 7 7 10 4 6 6 6 5 5 4 3 2 2 2 2 3 3 3 3 2 2 2 3 3 4 5 5 6 7 8 8 9 9
11 8 7 5 5 7 11 12 14 10 7 7 9 11 2 2 2 3 4 3 2 2 2 2 2 2 3 3 3 3 3 3 4 4 3 4 4 5 6 7 7 7 8 9
11 8 10 13 9 9 11 13 13 12 11 12 14 13 7 5 5 4 3 3 3 3 2 2 1 1 2 2 2 3 3 3 3 3 3 4 5 6 6 7 7 7 8 8
9 10 9 8 6 7 9 13 15 17 16 13 13 15 14 9 8 6 5 3 3 2 1 0 0 1 1 2 2 3 4 4 4 4 4 5 6 6 6 6 7 7 7 8
9 8 7 8 9 9 9 13 17 19 17 16 13 15 11 8 4 4 4 5 4 3 2 1 1 1 1 2 3 3 4 4 4 4 4 5 6 7 7 7 7 7 8 8
9 8 7 9 6 5 13 17 18 16 14 15 19 18 7 6 8 8 7 6 5 5 3 2 1 1 1 2 2 3 4 5 5 4 5 5 6 7 8 9 8 8 8 8
9 8 5 4 6 15 11 9 13 15 15 14 12 10 10 11 7 4 4 6 5 4 3 2 1 2 2 3 4 4 5 5 5 5 5 6 6 7 8 8 8 8 7 7
10 9 6 6 8 9 8 6 11 13 14 12 14 11 7 4 2 3 3 4 5 3 2 1 0 1 2 4 5 5 5 4 4 5 6 7 7 8 8 9 9 8 8 8
8 8 7 6 7 11 11 7 6 7 12 9 11 10 8 6 6 7 3 2 2 2 2 2 2 3 3 4 5 5 5 5 6 7 7 7 7 7 9 9 9 7 7 8
10 9 10 9 8 10 8 4 7 10 11 5 7 8 9 8 7 3 4 3 3 2 3 3 3 3 3 4 5 5 5 6 7 8 8 8 7 8 8 8 7 8 7 7
11 9 9 8 9 12 4 6 10 7 2 3 4 5 6 4 3 4 4 4 3 3 3 3 3 3 3 4 4 5 6 7 8 8 8 9 8 7 7 8 8 7 7 8
8 9 7 9 9 2 2 4 2 2 3 3 3 3 5 5 4 4 3 3 3 2 3 3 2 3 4 5 5 5 7 8 8 8 9 8 9 7 7 7 7 7 6 6
3 2 4 4 5 2 0 1 1 2 2 2 3 4 5 5 5 4 3 2 2 2 2 2 2 3 4 5 5 5 7 7 7 8 8 8 8 8 7 6 5 5 5 6
5 4 4 5 2 1 2 1 2 3 4 5 4 4 4 6 5 3 2 1 1 1 2 2 2 3 4 5 6 6 6 6 7 7 8 8 7 7 7 6 5 6 5 5
4 5 6 6 5 5 4 4 4 4 3 3 4 3 3 3 4 3 2 1 1 1 2 2 3 3 5 5 6 6 6 5 6 6 7 6 6 6 6 7 7 8 8 10
Wind_Direction
182 200 208 206 209 214 182 190 209 214 206 205 231 242 244 245 238 239 243 241 242 244 245 237 228 222 215 210 207 206 204 203 195 194 199 204 213 211 210 212 210 207 209 207
191 221 216 200 203 212 211 214 217 237 217 215 245 253 245 239 235 231 235 238 240 246 253 244 233 224 216 212 209 208 208 203 200 203 202 203 203 209 213 213 214 212 212 210
209 213 188 191 198 206 217 218 212 213 263 259 277 270 244 242 239 237 236 237 237 237 241 242 234 225 218 216 213 211 209 207 204 203 193 188 186 202 208 215 218 217 214 214
226 222 181 194 208 203 225 211 205 209 210 238 210 266 248 231 241 239 237 237 238 238 238 238 233 227 219 219 215 212 210 208 205 199 195 197 205 215 219 217 217 213 212 216
215 192 194 206 207 195 207 178 197 209 218 241 220 253 264 211 233 237 235 235 237 238 235 234 231 226 223 218 213 211 209 209 205 200 202 205 215 223 225 215 217 217 215 217
228 199 200 211 202 190 160 143 186 206 218 240 223 228 260 206 218 228 231 233 235 237 235 235 235 232 230 221 212 209 206 210 206 203 206 209 216 221 220 217 220 221 221 221
218 223 213 178 175 182 174 171 201 211 218 238 192 214 249 215 209 214 224 230 232 233 232 232 233 230 226 218 213 210 208 214 210 206 209 213 218 221 223 223 224 224 224 224
202 214 204 193 190 190 196 191 200 206 212 236 190 224 247 218 216 218 221 222 226 232 229 226 226 223 220 213 205 201 204 215 212 210 215 218 220 222 227 227 226 225 227 229
199 218 189 198 180 174 189 207 208 206 210 233 230 254 287 235 226 224 220 220 224 228 224 220 217 210 209 198 197 199 204 213 217 219 224 225 224 225 229 230 228 231 232 231
179 206 203 186 171 200 189 169 170 203 213 231 238 233 236 213 217 219 218 217 223 216 208 210 200 173 149 153 201 195 199 213 223 228 232 241 239 235 235 234 234 234 235 232
189 198 202 178 194 195 182 189 194 198 200 206 237 248 218 208 210 208 211 208 204 200 197 170 135 97 68 51 45 34 357 285 274 258 253 257 257 255 251 245 243 242 243 238
189 192 217 214 216 204 197 199 196 205 213 206 231 255 226 196 204 201 200 198 189 174 149 129 107 70 52 42 30 20 12 354 319 295 278 268 270 270 266 262 258 254 252 247
176 194 207 215 228 207 210 209 207 209 204 209 222 251 239 185 197 187 178 177 158 135 116 88 70 58 47 31 16 6 4 350 337 335 322 304 295 290 281 276 274 267 259 256
180 195 209 213 203 187 204 209 204 203 218 226 227 243 251 231 216 211 191 178 158 140 121 101 68 44 35 26 14 2 353 350 343 338 330 316 304 292 286 285 284 279 271 264
187 208 216 229 215 190 206 209 209 214 218 223 232 237 244 234 214 205 194 186 182 190 176 143 35 3 8 4 356 352 345 345 343 341 334 317 310 306 299 295 291 288 281 271
191 202 204 232 224 209 221 217 217 222 225 230 238 244 239 236 215 203 201 200 204 215 219 215 263 306 331 341 343 345 341 340 341 337 327 324 322 318 315 308 299 294 288 280
189 184 192 225 224 213 230 217 215 219 218 217 231 239 234 229 212 204 200 200 206 218 223 224 239 273 310 324 339 340 337 337 340 334 328 329 327 322 317 313 310 302 295 290
188 187 192 201 200 230 235 210 206 219 228 220 226 232 221 227 224 209 192 192 204 216 226 236 275 321 341 358 360 353 348 341 335 330 328 328 326 319 316 314 310 306 302 295
192 186 189 195 220 248 270 227 196 206 232 221 227 234 234 230 191 230 206 186 196 208 210 201 348 2 15 16 5 355 345 339 335 331 327 324 321 315 314 312 308 306 305 303
194 183 188 193 205 226 235 223 199 184 238 230 217 219 212 187 212 230 198 164 136 105 89 69 51 40 34 13 2 358 346 342 337 327 320 317 315 310 308 305 303 302 300 297
182 193 203 210 225 245 244 215 144 187 231 216 197 205 200 204 219 184 128 121 117 104 82 68 60 45 21 4 2 356 347 341 331 324 320 317 316 311 307 306 305 306 304 299
184 188 198 193 216 239 219 159 183 210 184 159 176 189 188 187 145 124 127 124 111 90 66 57 48 25 13 10 5 350 340 334 331 327 322 319 317 315 313 310 309 308 304 300
198 194 188 198 216 228 167 186 200 154 164 185 183 178 154 141 139 134 128 121 106 85 57 38 30 6 1 6 4 341 330 331 329 327 322 319 317 315 314 310 308 309 306 299
238 184 172 215 234 226 188 93 48 96 137 139 138 137 138 145 149 145 137 119 87 60 45 24 15 354 341 345 345 330 325 329 326 320 318 319 319 317 316 310 304 303 304 299
210 181 190 226 224 187 240 207 136 101 96 94 89 102 129 138 142 144 140 126 73 21 10 9 353 327 321 328 325 324 327 328 320 314 315 317 316 313 313 308 298 296 288 287
192 185 192 218 199 194 201 161 145 137 133 128 119 92 86 120 135 132 130 116 87 357 349 342 329 318 313 316 313 315 319 319 314 312 314 315 314 311 309 309 307 299 296 303